Overview Statistics Trail Chart Weather Telemetry Raw packets
 

This is the latest recevied weather packets stored in our database for station/object K4QXN-13. If no packets are shown the sender has not sent any weather packets the latest 10 day(s).

<< 104 105 106 107 108 109 110 >>
Time Temp. Humidity Pressure Rain* Wind** Luminosity Snow
1787779848 31.67° C 60% 1015.5 hPa 0 mm - - -
1787779546 31.11° C 61% 1015.5 hPa 0 mm - - -
1787779245 30.56° C 61% 1015.5 hPa 0 mm - - -
1787778943 31.11° C 60% 1015.5 hPa 0 mm - - -
1787778641 31.11° C 61% 1015.9 hPa 0 mm - - -
1787778339 31.67° C 60% 1015.9 hPa 0 mm - - -
1787778038 31.11° C 60% 1015.5 hPa 0 mm - - -
1787777736 31.11° C 59% 1015.5 hPa 0 mm - - -
1787777434 31.11° C 59% 1015.9 hPa 0 mm - - -
1787777133 31.11° C 60% 1015.5 hPa 0 mm - - -
1787776831 31.11° C 59% 1015.5 hPa 0 mm - - -
1787776529 31.67° C 58% 1016.2 hPa 0 mm - - -
1787776228 31.67° C 58% 1015.9 hPa 0 mm - - -
1787775926 31.67° C 59% 1015.9 hPa 0 mm - - -
1787775624 31.67° C 57% 1015.9 hPa 0 mm - - -
1787775323 32.22° C 57% 1015.9 hPa 0 mm - - -
1787775021 32.22° C 56% 1015.9 hPa 0 mm - - -
1787774720 32.78° C 55% 1016.2 hPa 0 mm - - -
1787774418 32.22° C 57% 1016.2 hPa 0 mm - - -
1787774116 32.78° C 57% 1016.2 hPa 0 mm - - -
1787773815 32.22° C 59% 1016.2 hPa 0 mm - - -
1787773513 32.22° C 62% 1016.2 hPa 0 mm - - -
1787773211 31.11° C 61% 1016.2 hPa 0 mm - - -
1787772909 31.67° C 60% 1016.5 hPa 0 mm - - -
1787772608 31.67° C 63% 1016.5 hPa 0 mm - - -

* Rain latest hour (hover to see other rain measurements)
** Current wind speed in m/s (hover to see current wind gust speed)